{"data":{"norad_id":60454,"epoch":"2026-09-22T22:40:43.228992Z","epoch_age_seconds":75073,"freshness":"FRESH","line1":"1 60454U 24147A   26265.94494478  .00039089  00000+0  55672-3 0  9993","line2":"2 60454  37.3802 154.3643 0005787 325.3745  34.6645 15.55374432118272","mean_motion":15.55374432,"eccentricity":0.0005787,"inclination_deg":37.3802,"raan_deg":154.3643,"arg_perigee_deg":325.3745,"mean_anomaly_deg":34.6645,"bstar":0.00055672,"rev_number":11827,"period_min":92.582208526365,"perigee_km":397.141296253,"apogee_km":404.98754397664,"semimajor_km":6779.2014201148,"source":"CELESTRAK","updated_at":"2026-09-23T09:00:20.616621Z"}}